Zurück zum Katalog

STARLINK-2194

AktivKommunikationVLEO
NORAD 47771·PAYLOAD·🇺🇸 United States

Gestartet Mar 4, 2021 von Cape Canaveral Space Force Station

Loading…

Nächste Überflüge (nächste 24 Stunden)

TLE

AktuellSource: CelesTrak SupGP

Epoche: Sep 14, 2026, 20:43 UTC

1 47771C 21017BB  26257.86368056  .00092896  00000+0  26508-2 0  2574
2 47771  53.1582  43.0366 0001005   5.2091 149.4260 15.35435639    18

Verfolge STARLINK-2194 in Echtzeit mit AllMySat

Download on the App Store